Hourly Data Report for October 09, 2014

All times are specified in Local Standard Time (LST). Add 1 hour to adjust for Daylight Saving Time where and when it is observed.

ARVIAT A
NUNAVUT

61°05'38.000" N
94°04'18.000" W
10.40 m
2300427
71174
YEK

Download Data

Hourly Data (October 2014)
Hourly Data Report for October 9, 2014
Temp Definition
°C
Dew Point Temp Definition
°C
Rel Hum Definition
%
Wind Dir Definition
10's deg

Wind Spd Definition
km/h
Visibility Definition
km
Stn Press Definition
kPa
Hmdx Definition


Wind Chill Definition


Weather Definition


TIME
00:00 Legend Double Dagger 2.1 0.6 90 4 32 9.7 101.85     Fog
01:00 Legend Double Dagger 1.7 0.5 92 4 30 9.7 101.89     Fog
02:00 Legend Double Dagger 1.6 -0.2 88 4 22 12.9 101.92     LegendNANA
03:00 Legend Double Dagger 0.5 -0.5 93 35 26 11.3 101.95     LegendNANA
04:00 Legend Double Dagger 0.1 -0.9 93 36 24 12.9 101.96     LegendNANA
05:00 Legend Double Dagger -0.6 -1.5 94 36 30 11.3 101.99   -7 LegendNANA
06:00 Legend Double Dagger -1.1 -1.8 95 36 24 11.3 102.02   -7 LegendNANA
07:00 Legend Double Dagger -0.5 -1.6 92 36 28 16.1 102.05   -7 LegendNANA
08:00 Legend Double Dagger -0.1 -2.4 85 36 28 16.1 102.08   -6 LegendNANA
09:00 Legend Double Dagger -0.2 -1.8 89 36 32 16.1 102.10   -7 Snow
10:00 Legend Double Dagger -0.4 -2.0 89 36 32 16.1 102.09   -7 LegendNANA
11:00 Legend Double Dagger -0.2 -1.8 89 1 28 16.1 102.13   -7 LegendNANA
12:00 Legend Double Dagger -0.1 -2.0 87 36 32 16.1 102.14   -7 LegendNANA
13:00 Legend Double Dagger -0.1 -2.1 87 36 32 16.1 102.16   -7 LegendNANA
14:00 Legend Double Dagger -0.1 -2.1 87 1 28 16.1 102.19   -6 LegendNANA
15:00 Legend Double Dagger -0.2 -2.9 82 1 24 16.1 102.21   -6 LegendNANA
16:00 Legend Double Dagger -0.5 -3.3 82 36 24 16.1 102.21   -6 LegendNANA
17:00 Legend Double Dagger -0.8 -3.6 81 36 24 16.1 102.23   -7 LegendNANA
18:00 Legend Double Dagger -1.1 -3.9 82 36 22 16.1 102.22   -7 LegendNANA
19:00 Legend Double Dagger -1.3 -4.5 79 1 15 16.1 102.22   -6 LegendNANA
20:00 Legend Double Dagger -1.6 -5.0 78 35 18 16.1 102.19   -7 Snow
21:00 Legend Double Dagger -1.8 -5.5 76 34 24 16.1 102.15   -8 LegendNANA
22:00 Legend Double Dagger -2.3 -5.1 81 33 22 16.1 102.12   -8 LegendNANA
23:00 Legend Double Dagger -2.4 -5.3 81 32 21 16.1 102.08   -8 LegendNANA

Notes on Data Quality.

Legend

  • E = Estimated
  • M = Missing
  • NA = Not Available
  • ‡ = Partner data that is not subject to review by the National Climate Archives
Date modified: